Time,TemperatureF,DewpointF,PressureIn,WindDirection,WindDirectionDegrees,WindSpeedMPH,WindSpeedGustMPH,Humidity,HourlyPrecipIn,Conditions,Clouds,dailyrainin,SoftwareType,DateUTC
2013-08-10 00:01:00,55.6,49.1,30.06,SSW,202,0.0,0.0,79,0.00,,,0.00,WUHU21636XXSP,2013-08-10 04:01:00,
2013-08-10 00:06:00,55.2,48.7,30.06,SSW,202,0.0,0.0,80,0.00,,,0.00,WUHU21636XXSP,2013-08-10 04:06:00,
2013-08-10 00:11:00,55.0,48.9,30.06,SSW,202,0.0,0.0,81,0.00,,,0.00,WUHU21636XXSP,2013-08-10 04:11:00,
2013-08-10 00:16:00,54.7,48.9,30.06,SSW,202,0.0,0.0,81,0.00,,,0.00,WUHU21636XXSP,2013-08-10 04:16:00,
2013-08-10 00:21:00,54.1,48.4,30.06,SSW,202,0.0,0.0,81,0.00,,,0.00,WUHU21636XXSP,2013-08-10 04:21:00,
2013-08-10 00:26:00,53.8,48.4,30.06,SSW,202,0.0,0.0,82,0.00,,,0.00,WUHU21636XXSP,2013-08-10 04:26:00,
2013-08-10 00:31:00,53.4,48.0,30.06,SSW,202,0.0,0.0,82,0.00,,,0.00,WUHU21636XXSP,2013-08-10 04:31:00,
2013-08-10 00:36:00,53.1,47.7,30.06,SSW,202,0.0,0.0,82,0.00,,,0.00,WUHU21636XXSP,2013-08-10 04:36:00,
2013-08-10 00:41:00,52.7,47.3,30.06,SSW,202,0.0,0.0,82,0.00,,,0.00,WUHU21636XXSP,2013-08-10 04:41:00,
2013-08-10 00:46:00,52.3,46.9,30.06,SSW,202,0.0,0.0,82,0.00,,,0.00,WUHU21636XXSP,2013-08-10 04:46:00,
2013-08-10 00:51:00,52.0,46.6,30.06,SSW,202,0.0,0.0,83,0.00,,,0.00,WUHU21636XXSP,2013-08-10 04:51:00,
2013-08-10 00:56:00,51.4,46.4,30.06,SSW,202,0.0,0.0,83,0.00,,,0.00,WUHU21636XXSP,2013-08-10 04:56:00,
2013-08-10 01:01:00,51.3,46.2,30.07,SSW,202,0.0,0.0,83,0.00,,,0.00,WUHU21636XXSP,2013-08-10 05:01:00,
2013-08-10 01:06:00,50.7,45.7,30.07,SSW,202,0.0,0.0,83,0.00,,,0.00,WUHU21636XXSP,2013-08-10 05:06:00,
2013-08-10 01:11:00,50.5,45.5,30.07,SSW,202,0.0,0.0,84,0.00,,,0.00,WUHU21636XXSP,2013-08-10 05:11:00,
2013-08-10 01:16:00,50.2,45.3,30.07,SSW,202,0.0,0.0,84,0.00,,,0.00,WUHU21636XXSP,2013-08-10 05:16:00,
2013-08-10 01:21:00,49.8,45.0,30.07,SSW,202,0.0,0.0,84,0.00,,,0.00,WUHU21636XXSP,2013-08-10 05:21:00,
2013-08-10 01:26:00,49.6,45.1,30.07,SSW,202,0.0,0.0,84,0.00,,,0.00,WUHU21636XXSP,2013-08-10 05:26:00,
2013-08-10 01:31:00,49.6,45.1,30.07,SSW,202,0.0,0.0,85,0.00,,,0.00,WUHU21636XXSP,2013-08-10 05:31:00,
2013-08-10 01:36:00,49.3,44.8,30.07,SSW,202,0.0,0.0,85,0.00,,,0.00,WUHU21636XXSP,2013-08-10 05:36:00,
2013-08-10 01:41:00,49.3,44.8,30.07,SSW,202,0.0,0.0,86,0.00,,,0.00,WUHU21636XXSP,2013-08-10 05:41:00,
2013-08-10 01:46:00,49.1,45.3,30.07,SSW,202,0.0,0.0,87,0.00,,,0.00,WUHU21636XXSP,2013-08-10 05:46:00,
2013-08-10 01:51:00,48.9,45.1,30.07,SSW,202,0.0,0.0,87,0.00,,,0.00,WUHU21636XXSP,2013-08-10 05:51:00,
2013-08-10 01:56:00,48.7,45.0,30.07,SSW,202,0.0,0.0,87,0.00,,,0.00,WUHU21636XXSP,2013-08-10 05:56:00,
2013-08-10 02:01:00,48.7,45.0,30.08,SSW,202,0.0,0.0,87,0.00,,,0.00,WUHU21636XXSP,2013-08-10 06:01:00,
2013-08-10 02:06:00,48.4,44.6,30.08,SSW,202,0.0,0.0,87,0.00,,,0.00,WUHU21636XXSP,2013-08-10 06:06:00,
2013-08-10 02:11:00,48.0,44.6,30.08,SSW,202,0.0,0.0,88,0.00,,,0.00,WUHU21636XXSP,2013-08-10 06:11:00,
2013-08-10 02:16:00,47.8,44.4,30.08,SSW,202,0.0,0.0,88,0.00,,,0.00,WUHU21636XXSP,2013-08-10 06:16:00,
2013-08-10 02:21:00,47.8,44.4,30.08,SSW,202,0.0,0.0,88,0.00,,,0.00,WUHU21636XXSP,2013-08-10 06:21:00,
2013-08-10 02:26:00,47.5,44.1,30.08,SSW,202,0.0,0.0,88,0.00,,,0.00,WUHU21636XXSP,2013-08-10 06:26:00,
2013-08-10 02:31:00,47.3,43.9,30.08,SSW,202,0.0,0.0,88,0.00,,,0.00,WUHU21636XXSP,2013-08-10 06:31:00,
2013-08-10 02:36:00,47.1,43.7,30.08,SSW,202,0.0,0.0,88,0.00,,,0.00,WUHU21636XXSP,2013-08-10 06:36:00,
2013-08-10 02:41:00,46.9,43.5,30.08,SSW,202,0.0,0.0,88,0.00,,,0.00,WUHU21636XXSP,2013-08-10 06:41:00,
2013-08-10 02:46:00,46.9,43.5,30.08,SSW,202,0.0,0.0,88,0.00,,,0.00,WUHU21636XXSP,2013-08-10 06:46:00,
2013-08-10 02:51:00,46.8,44.1,30.08,SSW,202,0.0,0.0,89,0.00,,,0.00,WUHU21636XXSP,2013-08-10 06:51:00,
2013-08-10 02:56:00,46.4,43.0,30.08,SSW,202,0.0,0.0,88,0.00,,,0.00,WUHU21636XXSP,2013-08-10 06:56:00,
2013-08-10 03:01:00,46.4,43.0,30.08,SSW,202,0.0,0.0,88,0.00,,,0.00,WUHU21636XXSP,2013-08-10 07:01:00,
2013-08-10 03:06:00,46.4,43.0,30.08,SSW,202,0.0,0.0,88,0.00,,,0.00,WUHU21636XXSP,2013-08-10 07:06:00,
2013-08-10 03:11:00,46.2,42.8,30.09,SSW,202,0.0,0.0,89,0.00,,,0.00,WUHU21636XXSP,2013-08-10 07:11:00,
2013-08-10 03:16:00,46.0,43.0,30.09,SSW,202,0.0,0.0,89,0.00,,,0.00,WUHU21636XXSP,2013-08-10 07:16:00,
2013-08-10 03:21:00,45.9,42.8,30.09,SSW,202,0.0,0.0,89,0.00,,,0.00,WUHU21636XXSP,2013-08-10 07:21:00,
2013-08-10 03:26:00,45.7,42.6,30.09,SSW,202,0.0,0.0,89,0.00,,,0.00,WUHU21636XXSP,2013-08-10 07:26:00,
2013-08-10 03:31:00,45.7,42.6,30.09,SSW,202,0.0,0.0,89,0.00,,,0.00,WUHU21636XXSP,2013-08-10 07:31:00,
2013-08-10 03:36:00,45.7,42.6,30.09,SSW,202,0.0,0.0,89,0.00,,,0.00,WUHU21636XXSP,2013-08-10 07:36:00,
2013-08-10 03:41:00,45.5,42.4,30.09,SSW,202,0.0,0.0,89,0.00,,,0.00,WUHU21636XXSP,2013-08-10 07:41:00,
2013-08-10 03:46:00,45.3,42.3,30.09,SSW,202,0.0,0.0,89,0.00,,,0.00,WUHU21636XXSP,2013-08-10 07:46:00,
2013-08-10 03:51:00,45.3,42.3,30.10,SSW,202,0.0,0.0,89,0.00,,,0.00,WUHU21636XXSP,2013-08-10 07:51:00,
2013-08-10 03:56:00,45.1,42.1,30.10,SSW,202,0.0,0.0,89,0.00,,,0.00,WUHU21636XXSP,2013-08-10 07:56:00,
2013-08-10 04:01:00,45.0,41.9,30.10,SSW,202,0.0,0.0,89,0.00,,,0.00,WUHU21636XXSP,2013-08-10 08:01:00,
2013-08-10 04:06:00,45.1,45.7,30.10,SSW,202,0.0,0.0,89,0.00,,,0.00,WUHU21636XXSP,2013-08-10 08:06:00,
2013-08-10 04:11:00,45.3,42.3,30.10,SSW,202,0.0,0.0,89,0.00,,,0.00,WUHU21636XXSP,2013-08-10 08:11:00,
2013-08-10 04:16:00,45.1,42.4,30.10,SSW,202,0.0,0.0,90,0.00,,,0.00,WUHU21636XXSP,2013-08-10 08:16:00,
2013-08-10 04:21:00,45.1,42.4,30.10,SSW,202,0.0,0.0,90,0.00,,,0.00,WUHU21636XXSP,2013-08-10 08:21:00,
2013-08-10 04:26:00,45.1,42.3,30.10,SSW,202,0.0,0.0,90,0.00,,,0.00,WUHU21636XXSP,2013-08-10 08:26:00,
2013-08-10 04:31:00,45.1,42.4,30.10,SSW,202,0.0,0.0,90,0.00,,,0.00,WUHU21636XXSP,2013-08-10 08:31:00,
2013-08-10 04:36:00,45.1,42.4,30.10,SSW,202,0.0,0.0,90,0.00,,,0.00,WUHU21636XXSP,2013-08-10 08:36:00,
2013-08-10 04:41:00,45.1,42.4,30.10,SSW,202,0.0,0.0,90,0.00,,,0.00,WUHU21636XXSP,2013-08-10 08:41:00,
2013-08-10 04:46:00,45.1,42.4,30.10,SSW,202,0.0,0.0,90,0.00,,,0.00,WUHU21636XXSP,2013-08-10 08:46:00,
2013-08-10 04:51:00,45.0,42.3,30.10,SSW,202,0.0,0.0,90,0.00,,,0.00,WUHU21636XXSP,2013-08-10 08:51:00,
2013-08-10 04:56:00,45.0,42.3,30.10,SSW,202,0.0,0.0,90,0.00,,,0.00,WUHU21636XXSP,2013-08-10 08:56:00,
2013-08-10 05:01:00,44.8,42.1,30.11,SSW,202,0.0,0.0,90,0.00,,,0.00,WUHU21636XXSP,2013-08-10 09:01:00,
2013-08-10 05:06:00,45.0,42.3,30.10,SSW,202,0.0,0.0,90,0.00,,,0.00,WUHU21636XXSP,2013-08-10 09:06:00,
2013-08-10 05:11:00,45.0,42.3,30.10,SSW,202,0.0,0.0,90,0.00,,,0.00,WUHU21636XXSP,2013-08-10 09:11:00,
2013-08-10 05:16:00,44.8,42.1,30.11,SSW,202,0.0,0.0,90,0.00,,,0.00,WUHU21636XXSP,2013-08-10 09:16:00,
2013-08-10 05:21:00,44.4,41.7,30.10,SSW,202,0.0,0.0,90,0.00,,,0.00,WUHU21636XXSP,2013-08-10 09:21:00,
2013-08-10 05:26:00,44.4,41.7,30.10,SSW,202,0.0,0.0,90,0.00,,,0.00,WUHU21636XXSP,2013-08-10 09:26:00,
2013-08-10 05:31:00,44.4,41.7,30.11,SSW,202,0.0,0.0,90,0.00,,,0.00,WUHU21636XXSP,2013-08-10 09:31:00,
2013-08-10 05:36:00,44.4,41.7,30.11,SSW,202,0.0,0.0,90,0.00,,,0.00,WUHU21636XXSP,2013-08-10 09:36:00,
2013-08-10 05:41:00,44.4,41.7,30.11,SSW,202,0.0,0.0,90,0.00,,,0.00,WUHU21636XXSP,2013-08-10 09:41:00,
2013-08-10 05:46:00,44.2,41.5,30.11,SSW,202,0.0,0.0,90,0.00,,,0.00,WUHU21636XXSP,2013-08-10 09:46:00,
2013-08-10 05:51:00,44.2,41.5,30.11,SSW,202,0.0,0.0,90,0.00,,,0.00,WUHU21636XXSP,2013-08-10 09:51:00,
2013-08-10 05:56:00,44.4,41.7,30.11,SSW,202,0.0,0.0,90,0.00,,,0.00,WUHU21636XXSP,2013-08-10 09:56:00,
2013-08-10 06:01:00,44.4,41.7,30.11,SSW,202,0.0,0.0,90,0.00,,,0.00,WUHU21636XXSP,2013-08-10 10:01:00,
2013-08-10 06:06:00,44.4,41.7,30.11,SSW,202,0.0,0.0,90,0.00,,,0.00,WUHU21636XXSP,2013-08-10 10:06:00,
2013-08-10 06:11:00,44.2,41.5,30.12,SSW,202,0.0,0.0,90,0.00,,,0.00,WUHU21636XXSP,2013-08-10 10:11:00,
2013-08-10 06:16:00,44.2,41.5,30.12,SSW,202,0.0,0.0,90,0.00,,,0.00,WUHU21636XXSP,2013-08-10 10:16:00,
2013-08-10 06:21:00,44.2,41.5,30.12,SSW,202,0.0,0.0,90,0.00,,,0.00,WUHU21636XXSP,2013-08-10 10:21:00,
2013-08-10 06:26:00,44.2,41.5,30.12,SSW,202,0.0,0.0,90,0.00,,,0.00,WUHU21636XXSP,2013-08-10 10:26:00,
2013-08-10 06:31:00,44.2,41.5,30.12,SSW,202,0.0,0.0,90,0.00,,,0.00,WUHU21636XXSP,2013-08-10 10:31:00,
2013-08-10 06:36:00,44.2,41.5,30.12,SSW,202,0.0,0.0,90,0.00,,,0.00,WUHU21636XXSP,2013-08-10 10:36:00,
2013-08-10 06:41:00,44.2,41.5,30.13,SSW,202,0.0,0.0,90,0.00,,,0.00,WUHU21636XXSP,2013-08-10 10:41:00,
2013-08-10 06:46:00,43.9,41.2,30.13,SSW,202,0.0,0.0,90,0.00,,,0.00,WUHU21636XXSP,2013-08-10 10:46:00,
2013-08-10 06:51:00,43.7,41.0,30.13,SSW,202,0.0,0.0,90,0.00,,,0.00,WUHU21636XXSP,2013-08-10 10:51:00,
2013-08-10 06:56:00,43.5,40.8,30.13,SSW,202,0.0,0.0,90,0.00,,,0.00,WUHU21636XXSP,2013-08-10 10:56:00,
2013-08-10 07:01:00,43.5,40.8,30.13,SSW,202,0.0,0.0,90,0.00,,,0.00,WUHU21636XXSP,2013-08-10 11:01:00,
2013-08-10 07:06:00,43.9,41.2,30.13,SSW,202,0.0,0.0,90,0.00,,,0.00,WUHU21636XXSP,2013-08-10 11:06:00,
2013-08-10 07:11:00,44.2,41.5,30.13,SSW,202,0.0,0.0,90,0.00,,,0.00,WUHU21636XXSP,2013-08-10 11:11:00,
2013-08-10 07:16:00,44.4,41.7,30.13,SSW,202,0.0,0.0,90,0.00,,,0.00,WUHU21636XXSP,2013-08-10 11:16:00,
2013-08-10 07:21:00,44.2,41.5,30.13,SSW,202,0.0,0.0,90,0.00,,,0.00,WUHU21636XXSP,2013-08-10 11:21:00,
2013-08-10 07:26:00,44.4,41.7,30.13,SSW,202,0.0,0.0,90,0.00,,,0.00,WUHU21636XXSP,2013-08-10 11:26:00,
2013-08-10 07:31:00,44.8,42.3,30.13,SSW,202,0.0,0.0,90,0.00,,,0.00,WUHU21636XXSP,2013-08-10 11:31:00,
2013-08-10 07:36:00,45.1,42.4,30.13,SSW,202,0.0,0.0,90,0.00,,,0.00,WUHU21636XXSP,2013-08-10 11:36:00,
2013-08-10 07:41:00,45.3,42.6,30.13,SSW,202,0.0,0.0,90,0.00,,,0.00,WUHU21636XXSP,2013-08-10 11:41:00,
2013-08-10 07:46:00,46.0,43.3,30.13,SSW,202,0.0,0.0,90,0.00,,,0.00,WUHU21636XXSP,2013-08-10 11:46:00,
2013-08-10 07:51:00,46.2,43.5,30.13,SSW,202,0.0,0.0,90,0.00,,,0.00,WUHU21636XXSP,2013-08-10 11:51:00,
2013-08-10 07:56:00,46.4,43.7,30.13,SSW,202,0.0,0.0,90,0.00,,,0.00,WUHU21636XXSP,2013-08-10 11:56:00,
2013-08-10 08:01:00,46.8,44.1,30.13,SSW,202,0.0,0.0,90,0.00,,,0.00,WUHU21636XXSP,2013-08-10 12:01:00,
2013-08-10 08:06:00,47.5,44.8,30.13,SSW,202,0.0,0.0,90,0.00,,,0.00,WUHU21636XXSP,2013-08-10 12:06:00,
2013-08-10 08:11:00,47.8,45.1,30.13,SSW,202,0.0,0.0,90,0.00,,,0.00,WUHU21636XXSP,2013-08-10 12:11:00,
2013-08-10 08:16:00,48.4,45.5,30.13,SSW,202,0.0,0.0,90,0.00,,,0.00,WUHU21636XXSP,2013-08-10 12:16:00,
2013-08-10 08:21:00,48.6,46.0,30.13,SSW,202,0.0,0.0,90,0.00,,,0.00,WUHU21636XXSP,2013-08-10 12:21:00,
2013-08-10 08:26:00,49.6,46.8,30.13,SSW,202,0.0,0.0,90,0.00,,,0.00,WUHU21636XXSP,2013-08-10 12:26:00,
2013-08-10 08:31:00,50.2,47.3,30.13,SSW,202,0.0,0.0,90,0.00,,,0.00,WUHU21636XXSP,2013-08-10 12:31:00,
2013-08-10 08:36:00,50.5,47.7,30.13,SSW,202,0.0,0.0,90,0.00,,,0.00,WUHU21636XXSP,2013-08-10 12:36:00,
2013-08-10 08:41:00,51.1,48.2,30.13,SSW,202,0.0,0.0,90,0.00,,,0.00,WUHU21636XXSP,2013-08-10 12:41:00,
2013-08-10 08:46:00,51.4,48.6,30.13,SSW,202,0.0,0.0,90,0.00,,,0.00,WUHU21636XXSP,2013-08-10 12:46:00,
2013-08-10 08:51:00,52.5,49.3,30.13,SSW,202,0.0,0.0,89,0.00,,,0.00,WUHU21636XXSP,2013-08-10 12:51:00,
2013-08-10 08:56:00,53.2,50.0,30.14,SSW,202,0.0,0.8,89,0.00,,,0.00,WUHU21636XXSP,2013-08-10 12:56:00,
2013-08-10 09:01:00,54.1,51.4,30.14,SSW,202,0.0,0.8,89,0.00,,,0.00,WUHU21636XXSP,2013-08-10 13:01:00,
2013-08-10 09:06:00,55.9,52.7,30.14,South,180,0.0,0.0,89,0.00,,,0.00,WUHU21636XXSP,2013-08-10 13:06:00,
2013-08-10 09:11:00,57.2,54.3,30.14,South,180,1.1,1.1,90,0.00,,,0.00,WUHU21636XXSP,2013-08-10 13:11:00,
2013-08-10 09:16:00,58.3,55.0,30.14,South,180,1.1,1.1,89,0.00,,,0.00,WUHU21636XXSP,2013-08-10 13:16:00,
2013-08-10 09:21:00,60.1,55.2,30.14,South,180,2.4,2.4,84,0.00,,,0.00,WUHU21636XXSP,2013-08-10 13:21:00,
2013-08-10 09:26:00,61.0,54.3,30.14,South,180,0.0,2.4,79,0.00,,,0.00,WUHU21636XXSP,2013-08-10 13:26:00,
2013-08-10 09:31:00,61.9,55.2,30.14,South,180,0.0,2.4,79,0.00,,,0.00,WUHU21636XXSP,2013-08-10 13:31:00,
2013-08-10 09:36:00,63.3,55.6,30.14,South,180,0.0,0.0,76,0.00,,,0.00,WUHU21636XXSP,2013-08-10 13:36:00,
2013-08-10 09:41:00,64.2,56.1,30.14,SSW,202,0.0,0.0,75,0.00,,,0.00,WUHU21636XXSP,2013-08-10 13:41:00,
2013-08-10 09:46:00,64.9,55.2,30.14,WSW,247,2.6,2.6,71,0.00,,,0.00,WUHU21636XXSP,2013-08-10 13:46:00,
2013-08-10 09:51:00,65.8,55.8,30.14,SW,225,0.0,2.6,70,0.00,,,0.00,WUHU21636XXSP,2013-08-10 13:51:00,
2013-08-10 09:56:00,66.0,55.9,30.14,WSW,247,0.0,0.0,71,0.00,,,0.00,WUHU21636XXSP,2013-08-10 13:56:00,
2013-08-10 10:01:00,66.6,56.5,30.14,SW,225,2.4,6.4,70,0.00,,,0.00,WUHU21636XXSP,2013-08-10 14:01:00,
2013-08-10 10:06:00,66.4,55.8,30.14,West,270,1.5,6.4,70,0.00,,,0.00,WUHU21636XXSP,2013-08-10 14:06:00,
2013-08-10 10:11:00,66.4,55.9,30.14,SSW,202,1.7,2.4,67,0.00,,,0.00,WUHU21636XXSP,2013-08-10 14:11:00,
2013-08-10 10:16:00,67.3,56.3,30.14,WSW,247,3.5,4.9,68,0.00,,,0.00,WUHU21636XXSP,2013-08-10 14:16:00,
2013-08-10 10:21:00,67.6,56.7,30.14,WSW,247,4.6,4.9,68,0.00,,,0.00,WUHU21636XXSP,2013-08-10 14:21:00,
2013-08-10 10:26:00,66.9,55.9,30.14,NW,315,5.5,10.5,68,0.00,,,0.00,WUHU21636XXSP,2013-08-10 14:26:00,
2013-08-10 10:31:00,65.8,54.9,30.14,NW,315,2.0,10.9,68,0.00,,,0.00,WUHU21636XXSP,2013-08-10 14:31:00,
2013-08-10 10:36:00,65.5,55.0,30.14,NW,315,0.0,10.9,69,0.00,,,0.00,WUHU21636XXSP,2013-08-10 14:36:00,
2013-08-10 10:41:00,66.4,56.3,30.14,NW,315,0.0,3.8,68,0.00,,,0.00,WUHU21636XXSP,2013-08-10 14:41:00,
2013-08-10 10:46:00,65.8,55.2,30.14,NNW,337,0.4,10.7,69,0.00,,,0.00,WUHU21636XXSP,2013-08-10 14:46:00,
2013-08-10 10:51:00,66.0,55.0,30.15,WNW,292,0.4,10.7,69,0.00,,,0.00,WUHU21636XXSP,2013-08-10 14:51:00,
2013-08-10 10:56:00,66.4,55.4,30.14,WNW,292,0.0,20.3,68,0.00,,,0.00,WUHU21636XXSP,2013-08-10 14:56:00,
2013-08-10 11:01:00,65.8,54.9,30.15,NW,315,1.3,20.3,68,0.00,,,0.00,WUHU21636XXSP,2013-08-10 15:01:00,
2013-08-10 11:06:00,64.9,54.5,30.15,West,270,0.6,9.3,69,0.00,,,0.00,WUHU21636XXSP,2013-08-10 15:06:00,
2013-08-10 11:11:00,64.2,54.7,30.15,WNW,292,0.8,9.3,71,0.00,,,0.00,WUHU21636XXSP,2013-08-10 15:11:00,
2013-08-10 11:16:00,64.0,54.5,30.15,SW,225,0.0,2.6,72,0.00,,,0.00,WUHU21636XXSP,2013-08-10 15:16:00,
2013-08-10 11:21:00,63.9,54.7,30.15,WNW,292,0.0,2.6,72,0.00,,,0.00,WUHU21636XXSP,2013-08-10 15:21:00,
2013-08-10 11:26:00,64.2,55.4,30.15,WNW,292,0.0,2.2,73,0.00,,,0.00,WUHU21636XXSP,2013-08-10 15:26:00,
2013-08-10 11:31:00,64.8,55.8,30.15,West,270,0.0,0.4,73,0.00,,,0.00,WUHU21636XXSP,2013-08-10 15:31:00,
2013-08-10 11:36:00,65.8,55.9,30.15,West,270,0.0,0.4,72,0.00,,,0.00,WUHU21636XXSP,2013-08-10 15:36:00,
2013-08-10 11:41:00,66.4,56.3,30.15,South,180,0.0,1.7,70,0.00,,,0.00,WUHU21636XXSP,2013-08-10 15:41:00,
2013-08-10 11:46:00,66.4,56.3,30.15,West,270,0.0,1.7,68,0.00,,,0.00,WUHU21636XXSP,2013-08-10 15:46:00,
2013-08-10 11:51:00,66.6,56.8,30.15,West,270,1.3,1.3,71,0.00,,,0.00,WUHU21636XXSP,2013-08-10 15:51:00,
2013-08-10 11:56:00,68.5,57.4,30.15,North,0,0.0,3.8,68,0.00,,,0.00,WUHU21636XXSP,2013-08-10 15:56:00,
2013-08-10 12:01:00,69.6,57.2,30.14,West,270,1.3,3.8,65,0.00,,,0.00,WUHU21636XXSP,2013-08-10 16:01:00,
2013-08-10 12:06:00,70.7,57.4,30.15,WNW,292,3.1,13.1,63,0.00,,,0.00,WUHU21636XXSP,2013-08-10 16:06:00,
2013-08-10 12:11:00,71.2,55.6,30.15,NW,315,4.9,14.9,58,0.00,,,0.00,WUHU21636XXSP,2013-08-10 16:11:00,
2013-08-10 12:16:00,70.9,56.3,30.15,West,270,0.0,14.9,60,0.00,,,0.00,WUHU21636XXSP,2013-08-10 16:16:00,
2013-08-10 12:21:00,69.1,54.1,30.15,NW,315,4.9,12.9,59,0.00,,,0.00,WUHU21636XXSP,2013-08-10 16:21:00,
2013-08-10 12:26:00,67.8,54.1,30.15,NW,315,5.1,8.2,62,0.00,,,0.00,WUHU21636XXSP,2013-08-10 16:26:00,
2013-08-10 12:31:00,67.1,54.9,30.14,NW,315,3.3,8.9,65,0.00,,,0.00,WUHU21636XXSP,2013-08-10 16:31:00,
2013-08-10 12:36:00,66.9,54.1,30.15,NW,315,5.1,8.9,64,0.00,,,0.00,WUHU21636XXSP,2013-08-10 16:36:00,
2013-08-10 12:41:00,66.9,54.7,30.15,NNW,337,2.2,8.0,65,0.00,,,0.00,WUHU21636XXSP,2013-08-10 16:41:00,
2013-08-10 12:46:00,67.1,53.6,30.15,NNW,337,3.1,8.0,62,0.00,,,0.00,WUHU21636XXSP,2013-08-10 16:46:00,
2013-08-10 12:51:00,67.6,54.5,30.15,WNW,292,2.6,5.3,63,0.00,,,0.00,WUHU21636XXSP,2013-08-10 16:51:00,
2013-08-10 12:56:00,68.7,55.0,30.15,WNW,292,4.2,8.0,62,0.00,,,0.00,WUHU21636XXSP,2013-08-10 16:56:00,
2013-08-10 13:01:00,69.1,54.7,30.15,NW,315,3.3,8.9,60,0.00,,,0.00,WUHU21636XXSP,2013-08-10 17:01:00,
2013-08-10 13:06:00,69.4,54.0,30.15,NW,315,1.1,8.9,57,0.00,,,0.00,WUHU21636XXSP,2013-08-10 17:06:00,
2013-08-10 13:11:00,69.6,53.1,30.15,NW,315,2.4,3.3,57,0.00,,,0.00,WUHU21636XXSP,2013-08-10 17:11:00,
2013-08-10 13:16:00,68.5,53.6,30.15,NW,315,5.8,12.0,59,0.00,,,0.00,WUHU21636XXSP,2013-08-10 17:16:00,
2013-08-10 13:21:00,67.6,54.0,30.15,NNW,337,4.0,12.5,62,0.00,,,0.00,WUHU21636XXSP,2013-08-10 17:21:00,
2013-08-10 13:26:00,67.8,54.1,30.15,NNW,337,3.8,12.5,62,0.00,,,0.00,WUHU21636XXSP,2013-08-10 17:26:00,
2013-08-10 13:31:00,68.2,54.5,30.15,NW,315,1.7,5.3,62,0.00,,,0.00,WUHU21636XXSP,2013-08-10 17:31:00,
2013-08-10 13:36:00,68.5,53.6,30.15,WNW,292,2.4,12.5,57,0.00,,,0.00,WUHU21636XXSP,2013-08-10 17:36:00,
2013-08-10 13:41:00,69.1,52.5,30.15,NW,315,3.3,12.5,56,0.00,,,0.00,WUHU21636XXSP,2013-08-10 17:41:00,
2013-08-10 13:46:00,69.6,54.1,30.15,NW,315,4.0,10.2,59,0.00,,,0.00,WUHU21636XXSP,2013-08-10 17:46:00,
2013-08-10 13:51:00,68.5,54.1,30.15,NNW,337,2.4,16.5,60,0.00,,,0.00,WUHU21636XXSP,2013-08-10 17:51:00,
2013-08-10 13:56:00,68.2,52.7,30.15,NNW,337,0.0,16.5,58,0.00,,,0.00,WUHU21636XXSP,2013-08-10 17:56:00,
2013-08-10 14:01:00,70.2,55.6,30.14,NW,315,1.3,6.4,60,0.00,,,0.00,WUHU21636XXSP,2013-08-10 18:01:00,
2013-08-10 14:06:00,71.8,54.1,30.15,NNE,22,5.1,14.7,54,0.00,,,0.00,WUHU21636XXSP,2013-08-10 18:06:00,
2013-08-10 14:11:00,71.2,55.0,30.14,NW,315,5.5,14.7,55,0.00,,,0.00,WUHU21636XXSP,2013-08-10 18:11:00,
2013-08-10 14:16:00,70.0,53.1,30.15,North,0,6.4,12.3,56,0.00,,,0.00,WUHU21636XXSP,2013-08-10 18:16:00,
2013-08-10 14:21:00,69.4,53.4,30.14,WNW,292,2.9,12.3,57,0.00,,,0.00,WUHU21636XXSP,2013-08-10 18:21:00,
2013-08-10 14:26:00,71.4,56.3,30.14,WNW,292,6.0,11.1,59,0.00,,,0.00,WUHU21636XXSP,2013-08-10 18:26:00,
2013-08-10 14:31:00,73.8,54.9,30.14,WNW,292,4.6,13.1,52,0.00,,,0.00,WUHU21636XXSP,2013-08-10 18:31:00,
2013-08-10 14:36:00,73.6,55.2,30.14,NW,315,8.9,13.1,52,0.00,,,0.00,WUHU21636XXSP,2013-08-10 18:36:00,
2013-08-10 14:41:00,73.2,55.4,30.13,NW,315,0.0,11.4,54,0.00,,,0.00,WUHU21636XXSP,2013-08-10 18:41:00,
2013-08-10 14:46:00,71.8,55.6,30.14,West,270,4.2,11.4,57,0.00,,,0.00,WUHU21636XXSP,2013-08-10 18:46:00,
2013-08-10 14:51:00,70.0,55.0,30.14,NW,315,4.6,13.4,59,0.00,,,0.00,WUHU21636XXSP,2013-08-10 18:51:00,
2013-08-10 14:56:00,69.4,54.5,30.14,NW,315,5.5,13.4,59,0.00,,,0.00,WUHU21636XXSP,2013-08-10 18:56:00,
2013-08-10 15:01:00,70.0,55.4,30.14,NW,315,4.6,13.1,60,0.00,,,0.00,WUHU21636XXSP,2013-08-10 19:01:00,
2013-08-10 15:06:00,69.4,55.0,30.14,NNW,337,7.6,12.7,60,0.00,,,0.00,WUHU21636XXSP,2013-08-10 19:06:00,
2013-08-10 15:11:00,68.5,54.9,30.14,West,270,0.0,12.5,62,0.00,,,0.00,WUHU21636XXSP,2013-08-10 19:11:00,
2013-08-10 15:16:00,68.7,55.6,30.14,WNW,292,0.0,12.5,63,0.00,,,0.00,WUHU21636XXSP,2013-08-10 19:16:00,
2013-08-10 15:21:00,68.7,54.9,30.14,West,270,2.9,2.9,62,0.00,,,0.00,WUHU21636XXSP,2013-08-10 19:21:00,
2013-08-10 15:26:00,70.9,55.0,30.14,North,0,8.2,16.5,59,0.00,,,0.00,WUHU21636XXSP,2013-08-10 19:26:00,
2013-08-10 15:31:00,72.3,55.6,30.14,NW,315,2.9,16.5,56,0.00,,,0.00,WUHU21636XXSP,2013-08-10 19:31:00,
2013-08-10 15:36:00,72.3,54.5,30.14,NW,315,5.5,14.0,54,0.00,,,0.00,WUHU21636XXSP,2013-08-10 19:36:00,
2013-08-10 15:41:00,71.1,54.5,30.13,North,0,4.9,12.9,56,0.00,,,0.00,WUHU21636XXSP,2013-08-10 19:41:00,
2013-08-10 15:46:00,72.1,54.3,30.14,NW,315,5.5,17.2,54,0.00,,,0.00,WUHU21636XXSP,2013-08-10 19:46:00,
2013-08-10 15:51:00,72.5,54.7,30.13,NNW,337,3.1,17.2,54,0.00,,,0.00,WUHU21636XXSP,2013-08-10 19:51:00,
2013-08-10 15:56:00,72.7,54.3,30.13,NNW,337,8.7,15.8,53,0.00,,,0.00,WUHU21636XXSP,2013-08-10 19:56:00,
2013-08-10 16:01:00,73.0,54.1,30.13,NW,315,9.3,14.7,52,0.00,,,0.00,WUHU21636XXSP,2013-08-10 20:01:00,
2013-08-10 16:06:00,73.2,54.3,30.13,West,270,1.3,14.7,52,0.00,,,0.00,WUHU21636XXSP,2013-08-10 20:06:00,
2013-08-10 16:11:00,73.8,55.4,30.14,WSW,247,6.4,17.0,53,0.00,,,0.00,WUHU21636XXSP,2013-08-10 20:11:00,
2013-08-10 16:16:00,73.0,55.2,30.13,NE,45,6.7,19.2,54,0.00,,,0.00,WUHU21636XXSP,2013-08-10 20:16:00,
2013-08-10 16:21:00,72.7,54.9,30.13,NE,45,4.4,19.2,54,0.00,,,0.00,WUHU21636XXSP,2013-08-10 20:21:00,
2013-08-10 16:26:00,73.0,54.1,30.13,NNW,337,3.3,14.0,52,0.00,,,0.00,WUHU21636XXSP,2013-08-10 20:26:00,
2013-08-10 16:31:00,74.1,54.7,30.13,North,0,2.0,15.8,51,0.00,,,0.00,WUHU21636XXSP,2013-08-10 20:31:00,
2013-08-10 16:36:00,73.2,53.4,30.14,NW,315,8.0,19.0,50,0.00,,,0.00,WUHU21636XXSP,2013-08-10 20:36:00,
2013-08-10 16:41:00,73.4,53.6,30.13,WNW,292,6.4,19.0,50,0.00,,,0.00,WUHU21636XXSP,2013-08-10 20:41:00,
2013-08-10 16:46:00,72.7,54.3,30.13,North,0,6.4,13.1,53,0.00,,,0.00,WUHU21636XXSP,2013-08-10 20:46:00,
2013-08-10 16:51:00,73.0,54.7,30.13,NNW,337,2.2,11.8,53,0.00,,,0.00,WUHU21636XXSP,2013-08-10 20:51:00,
2013-08-10 16:56:00,74.1,54.3,30.13,WNW,292,8.2,14.5,50,0.00,,,0.00,WUHU21636XXSP,2013-08-10 20:56:00,
2013-08-10 17:01:00,73.6,53.8,30.13,NW,315,9.1,16.3,50,0.00,,,0.00,WUHU21636XXSP,2013-08-10 21:01:00,
2013-08-10 17:06:00,71.8,53.2,30.13,NNW,337,7.6,17.2,53,0.00,,,0.00,WUHU21636XXSP,2013-08-10 21:06:00,
2013-08-10 17:11:00,70.5,53.4,30.13,NNW,337,4.0,17.2,55,0.00,,,0.00,WUHU21636XXSP,2013-08-10 21:11:00,
2013-08-10 17:16:00,72.1,54.0,30.13,NNW,337,4.0,14.0,53,0.00,,,0.00,WUHU21636XXSP,2013-08-10 21:16:00,
2013-08-10 17:21:00,72.0,54.7,30.13,North,0,0.0,14.0,55,0.00,,,0.00,WUHU21636XXSP,2013-08-10 21:21:00,
2013-08-10 17:26:00,72.5,54.7,30.13,NW,315,1.1,14.3,54,0.00,,,0.00,WUHU21636XXSP,2013-08-10 21:26:00,
2013-08-10 17:31:00,73.2,54.3,30.13,NW,315,4.4,14.3,52,0.00,,,0.00,WUHU21636XXSP,2013-08-10 21:31:00,
2013-08-10 17:36:00,73.6,54.1,30.13,WSW,247,2.2,7.3,52,0.00,,,0.00,WUHU21636XXSP,2013-08-10 21:36:00,
2013-08-10 17:41:00,72.7,52.3,30.13,NNW,337,8.9,17.0,53,0.00,,,0.00,WUHU21636XXSP,2013-08-10 21:41:00,
2013-08-10 17:46:00,72.5,54.0,30.13,WNW,292,3.3,17.0,52,0.00,,,0.00,WUHU21636XXSP,2013-08-10 21:46:00,
2013-08-10 17:51:00,72.7,54.0,30.13,NNW,337,0.8,12.5,52,0.00,,,0.00,WUHU21636XXSP,2013-08-10 21:51:00,
2013-08-10 17:56:00,72.7,54.0,30.13,NNW,337,1.7,11.6,52,0.00,,,0.00,WUHU21636XXSP,2013-08-10 21:56:00,
2013-08-10 18:01:00,72.1,52.9,30.12,NW,315,4.0,9.8,51,0.00,,,0.00,WUHU21636XXSP,2013-08-10 22:01:00,
2013-08-10 18:06:00,72.1,51.3,30.12,NNW,337,7.6,11.4,48,0.00,,,0.00,WUHU21636XXSP,2013-08-10 22:06:00,
2013-08-10 18:11:00,72.0,52.2,30.12,NW,315,4.6,14.5,50,0.00,,,0.00,WUHU21636XXSP,2013-08-10 22:11:00,
2013-08-10 18:16:00,72.1,54.0,30.12,WSW,247,2.6,14.5,53,0.00,,,0.00,WUHU21636XXSP,2013-08-10 22:16:00,
2013-08-10 18:21:00,72.7,54.9,30.12,NW,315,4.2,7.6,54,0.00,,,0.00,WUHU21636XXSP,2013-08-10 22:21:00,
2013-08-10 18:26:00,72.7,54.3,30.12,West,270,0.0,7.3,53,0.00,,,0.00,WUHU21636XXSP,2013-08-10 22:26:00,
2013-08-10 18:31:00,72.5,53.2,30.12,NW,315,5.8,5.8,51,0.00,,,0.00,WUHU21636XXSP,2013-08-10 22:31:00,
2013-08-10 18:36:00,72.3,52.5,30.12,NW,315,2.6,5.8,50,0.00,,,0.00,WUHU21636XXSP,2013-08-10 22:36:00,
2013-08-10 18:41:00,72.0,53.2,30.11,NW,315,4.4,7.6,52,0.00,,,0.00,WUHU21636XXSP,2013-08-10 22:41:00,
2013-08-10 18:46:00,72.1,53.4,30.11,NW,315,4.2,25.5,52,0.00,,,0.00,WUHU21636XXSP,2013-08-10 22:46:00,
2013-08-10 18:51:00,72.1,52.3,30.11,NW,315,1.3,25.5,50,0.00,,,0.00,WUHU21636XXSP,2013-08-10 22:51:00,
2013-08-10 18:56:00,72.1,52.3,30.11,West,270,2.4,4.2,52,0.00,,,0.00,WUHU21636XXSP,2013-08-10 22:56:00,
2013-08-10 19:01:00,72.0,53.2,30.11,West,270,0.4,7.3,52,0.00,,,0.00,WUHU21636XXSP,2013-08-10 23:01:00,
2013-08-10 19:06:00,72.0,53.8,30.11,West,270,0.8,7.3,53,0.00,,,0.00,WUHU21636XXSP,2013-08-10 23:06:00,
2013-08-10 19:11:00,71.8,53.6,30.11,NNW,337,4.9,8.5,53,0.00,,,0.00,WUHU21636XXSP,2013-08-10 23:11:00,
2013-08-10 19:16:00,71.2,53.6,30.11,NW,315,4.4,9.6,54,0.00,,,0.00,WUHU21636XXSP,2013-08-10 23:16:00,
2013-08-10 19:21:00,70.7,52.5,30.11,NNW,337,4.0,12.3,53,0.00,,,0.00,WUHU21636XXSP,2013-08-10 23:21:00,
2013-08-10 19:26:00,70.2,53.1,30.11,NW,315,6.0,12.3,55,0.00,,,0.00,WUHU21636XXSP,2013-08-10 23:26:00,
2013-08-10 19:31:00,69.6,52.7,30.11,NNW,337,6.4,11.1,55,0.00,,,0.00,WUHU21636XXSP,2013-08-10 23:31:00,
2013-08-10 19:36:00,69.4,52.9,30.11,NW,315,4.0,10.9,56,0.00,,,0.00,WUHU21636XXSP,2013-08-10 23:36:00,
2013-08-10 19:41:00,69.4,52.5,30.11,NW,315,3.3,9.3,55,0.00,,,0.00,WUHU21636XXSP,2013-08-10 23:41:00,
2013-08-10 19:46:00,69.1,52.2,30.11,NW,315,3.1,8.7,55,0.00,,,0.00,WUHU21636XXSP,2013-08-10 23:46:00,
2013-08-10 19:51:00,69.1,52.5,30.11,NW,315,4.0,5.8,56,0.00,,,0.00,WUHU21636XXSP,2013-08-10 23:51:00,
2013-08-10 19:56:00,68.7,52.3,30.11,NW,315,3.5,12.0,56,0.00,,,0.00,WUHU21636XXSP,2013-08-10 23:56:00,
2013-08-10 20:01:00,68.9,52.5,30.11,NW,315,2.6,12.0,56,0.00,,,0.00,WUHU21636XXSP,2013-08-11 00:01:00,
2013-08-10 20:06:00,68.9,52.5,30.11,NNW,337,3.1,3.5,55,0.00,,,0.00,WUHU21636XXSP,2013-08-11 00:06:00,
2013-08-10 20:11:00,68.7,52.3,30.11,NNW,337,2.0,3.5,57,0.00,,,0.00,WUHU21636XXSP,2013-08-11 00:11:00,
2013-08-10 20:16:00,68.9,52.9,30.11,NNW,337,0.0,3.1,58,0.00,,,0.00,WUHU21636XXSP,2013-08-11 00:16:00,
2013-08-10 20:21:00,69.1,54.1,30.11,NNW,337,0.0,0.0,59,0.00,,,0.00,WUHU21636XXSP,2013-08-11 00:21:00,
2013-08-10 20:26:00,69.1,54.1,30.11,NNW,337,0.0,0.0,59,0.00,,,0.00,WUHU21636XXSP,2013-08-11 00:26:00,
2013-08-10 20:31:00,68.5,54.1,30.10,NNW,337,0.0,0.0,60,0.00,,,0.00,WUHU21636XXSP,2013-08-11 00:31:00,
2013-08-10 20:36:00,67.3,53.8,30.10,NNW,337,0.0,0.0,62,0.00,,,0.00,WUHU21636XXSP,2013-08-11 00:36:00,
2013-08-10 20:41:00,65.8,53.1,30.10,NNW,337,0.0,0.0,64,0.00,,,0.00,WUHU21636XXSP,2013-08-11 00:41:00,
2013-08-10 20:46:00,63.9,52.2,30.10,NNW,337,0.0,0.0,66,0.00,,,0.00,WUHU21636XXSP,2013-08-11 00:46:00,
2013-08-10 20:51:00,62.8,51.6,30.10,NNW,337,0.0,0.0,67,0.00,,,0.00,WUHU21636XXSP,2013-08-11 00:51:00,
2013-08-10 20:56:00,61.7,51.4,30.10,NNW,337,0.0,0.0,69,0.00,,,0.00,WUHU21636XXSP,2013-08-11 00:56:00,
2013-08-10 21:01:00,60.4,51.4,30.10,NNW,337,0.0,0.0,72,0.00,,,0.00,WUHU21636XXSP,2013-08-11 01:01:00,
2013-08-10 21:06:00,59.2,50.2,30.10,NNW,337,0.0,0.0,72,0.00,,,0.00,WUHU21636XXSP,2013-08-11 01:06:00,
2013-08-10 21:11:00,59.0,50.0,30.10,NNW,337,0.0,0.0,73,0.00,,,0.00,WUHU21636XXSP,2013-08-11 01:11:00,
2013-08-10 21:16:00,58.3,49.6,30.10,NNW,337,0.0,0.0,74,0.00,,,0.00,WUHU21636XXSP,2013-08-11 01:16:00,
2013-08-10 21:21:00,57.4,49.8,30.10,NNW,337,0.0,0.0,76,0.00,,,0.00,WUHU21636XXSP,2013-08-11 01:21:00,
2013-08-10 21:26:00,56.8,49.3,30.11,NNW,337,0.0,0.0,76,0.00,,,0.00,WUHU21636XXSP,2013-08-11 01:26:00,
2013-08-10 21:31:00,55.9,49.1,30.10,NNW,337,0.0,0.0,78,0.00,,,0.00,WUHU21636XXSP,2013-08-11 01:31:00,
2013-08-10 21:36:00,55.2,48.7,30.11,NNW,337,0.0,6.7,79,0.00,,,0.00,WUHU21636XXSP,2013-08-11 01:36:00,
2013-08-10 21:41:00,54.7,48.6,30.11,NNW,337,0.0,6.7,80,0.00,,,0.00,WUHU21636XXSP,2013-08-11 01:41:00,
2013-08-10 21:46:00,54.3,48.6,30.11,NNW,337,0.0,0.0,81,0.00,,,0.00,WUHU21636XXSP,2013-08-11 01:46:00,
2013-08-10 21:51:00,53.8,48.4,30.11,NNW,337,0.0,0.0,82,0.00,,,0.00,WUHU21636XXSP,2013-08-11 01:51:00,
2013-08-10 21:56:00,53.4,48.0,30.11,NNW,337,0.0,0.0,82,0.00,,,0.00,WUHU21636XXSP,2013-08-11 01:56:00,
2013-08-10 22:01:00,53.2,47.7,30.11,NNW,337,0.0,0.0,82,0.00,,,0.00,WUHU21636XXSP,2013-08-11 02:01:00,
2013-08-10 22:06:00,52.9,47.5,30.11,NNW,337,0.0,0.0,82,0.00,,,0.00,WUHU21636XXSP,2013-08-11 02:06:00,
2013-08-10 22:11:00,52.7,47.7,30.12,NNW,337,0.0,0.0,83,0.00,,,0.00,WUHU21636XXSP,2013-08-11 02:11:00,
2013-08-10 22:16:00,52.5,47.5,30.12,NNW,337,0.0,0.0,83,0.00,,,0.00,WUHU21636XXSP,2013-08-11 02:16:00,
2013-08-10 22:21:00,52.2,47.3,30.12,NNW,337,0.0,0.0,84,0.00,,,0.00,WUHU21636XXSP,2013-08-11 02:21:00,
2013-08-10 22:26:00,52.0,47.1,30.12,NNW,337,0.0,0.0,84,0.00,,,0.00,WUHU21636XXSP,2013-08-11 02:26:00,
2013-08-10 22:31:00,52.0,47.1,30.12,NNW,337,0.0,0.0,85,0.00,,,0.00,WUHU21636XXSP,2013-08-11 02:31:00,
2013-08-10 22:36:00,51.6,47.1,30.12,NNW,337,0.0,0.0,85,0.00,,,0.00,WUHU21636XXSP,2013-08-11 02:36:00,
2013-08-10 22:41:00,51.4,46.9,30.12,NNW,337,0.0,0.0,86,0.00,,,0.00,WUHU21636XXSP,2013-08-11 02:41:00,
2013-08-10 22:46:00,51.3,46.8,30.12,NNW,337,0.0,0.0,85,0.00,,,0.00,WUHU21636XXSP,2013-08-11 02:46:00,
2013-08-10 22:51:00,50.9,46.8,30.11,NNW,337,0.0,0.0,86,0.00,,,0.00,WUHU21636XXSP,2013-08-11 02:51:00,
2013-08-10 22:56:00,50.7,46.6,30.11,NNW,337,0.0,0.0,87,0.00,,,0.00,WUHU21636XXSP,2013-08-11 02:56:00,
2013-08-10 23:01:00,50.5,46.6,30.12,NNW,337,0.0,0.0,87,0.00,,,0.00,WUHU21636XXSP,2013-08-11 03:01:00,
2013-08-10 23:07:00,50.2,46.0,30.12,NNW,337,0.0,0.0,86,0.00,,,0.00,WUHU21636XXSP,2013-08-11 03:07:00,
2013-08-10 23:12:00,50.2,46.0,30.12,NNW,337,0.0,0.0,86,0.00,,,0.00,WUHU21636XXSP,2013-08-11 03:12:00,
2013-08-10 23:17:00,49.8,45.9,30.12,NNW,337,0.0,0.0,87,0.00,,,0.00,WUHU21636XXSP,2013-08-11 03:17:00,
2013-08-10 23:22:00,49.6,45.9,30.12,NNW,337,0.0,0.0,87,0.00,,,0.00,WUHU21636XXSP,2013-08-11 03:22:00,
2013-08-10 23:27:00,49.6,45.9,30.12,NNW,337,0.0,0.0,87,0.00,,,0.00,WUHU21636XXSP,2013-08-11 03:27:00,
2013-08-10 23:33:00,49.5,45.7,30.12,NNW,337,0.0,0.0,87,0.00,,,0.00,WUHU21636XXSP,2013-08-11 03:33:00,
2013-08-10 23:38:00,49.3,45.5,30.12,NNW,337,0.0,0.0,87,0.00,,,0.00,WUHU21636XXSP,2013-08-11 03:38:00,
2013-08-10 23:43:00,49.1,45.3,30.12,NNW,337,0.0,0.0,87,0.00,,,0.00,WUHU21636XXSP,2013-08-11 03:43:00,
2013-08-10 23:48:00,49.1,45.3,30.12,NNW,337,0.0,0.0,87,0.00,,,0.00,WUHU21636XXSP,2013-08-11 03:48:00,
2013-08-10 23:53:00,48.9,45.1,30.12,NNW,337,0.0,0.0,87,0.00,,,0.00,WUHU21636XXSP,2013-08-11 03:53:00,
2013-08-10 23:58:00,48.7,45.3,30.12,NNW,337,0.0,0.0,88,0.00,,,0.00,WUHU21636XXSP,2013-08-11 03:58:00,